Waarnemingen

Advertentie
Mijn weer
Oostende Airport, België (6407): temperatuur & dauwpunt: 13.08.2019 16:00:00 - 19.08.2019 16:00:00 (CEST)Oostende Airport, België (6407): windsnelheid & windstoten: 13.08.2019 16:00:00 - 19.08.2019 16:00:00 (CEST)Oostende Airport, België (6407): windrichting: 13.08.2019 16:00:00 - 19.08.2019 16:00:00 (CEST)Oostende Airport, België (6407): luchtdruk: 13.08.2019 16:00:00 - 19.08.2019 16:00:00 (CEST)Oostende Airport, België (6407): zicht: 13.08.2019 16:00:00 - 19.08.2019 16:00:00 (CEST)
Datum & Tijd tt [°C] td [°C] ff [km/u] ff [kn] fx [km/u] fx [kn] dd ppp [hPa] vv [km]
19.08.2019 16:00:00 18,9 11,7 31 17 50 27 W 1016,9 10
19.08.2019 15:00:00 19,4 13,3 31 17 47 25 W 1016,7 10
19.08.2019 14:00:00 19,1 12,6 29 16 - - W 1016,2 10
19.08.2019 13:00:00 19,5 12,9 28 15 47 25 W 1015,9 10
19.08.2019 12:00:00 18,5 13,2 24 13 47 25 WZW 1015,4 10
19.08.2019 11:00:00 14,4 12,3 28 15 - - W 1015,2 10
19.08.2019 10:00:00 16,7 13,1 26 14 36 19 ZW 1014,6 10
19.08.2019 09:00:00 14,4 12,2 21 11 29 16 ZZW 1014,1 10
19.08.2019 08:00:00 12,6 10,9 18 10 - - ZZW 1013,9 10
19.08.2019 07:00:00 12,5 10,9 11 6 25 14 ZZW 1013,4 10
19.08.2019 06:00:00 12,4 10,8 15 8 25 14 ZW 1013,1 10
19.08.2019 05:00:00 12,3 10,6 15 8 - - ZW 1012,6 10
19.08.2019 04:00:00 12,7 10,9 16 9 25 14 ZZW 1012,4 10
19.08.2019 03:00:00 12,3 10,5 16 9 22 12 ZZW 1012,2 10
19.08.2019 02:00:00 12,5 10,7 15 8 - - ZZW 1011,8 10
19.08.2019 01:00:00 12,9 10,8 15 8 25 14 ZW 1011,6 10
19.08.2019 00:00:00 13,1 10,9 15 8 22 12 ZW 1011,1 10
18.08.2019 23:00:00 13,6 10,9 15 8 - - ZW 1010,6 10
18.08.2019 22:00:00 14,4 10,9 18 10 36 19 ZW 1010,0 10
18.08.2019 21:00:00 15,7 10,4 22 12 43 23 WZW 1009,8 10
18.08.2019 20:00:00 17,5 10,0 29 16 - - ZW 1009,3 10
18.08.2019 19:00:00 18,7 11,4 28 15 50 27 WZW 1008,9 10
18.08.2019 18:00:00 19,6 13,2 29 16 50 27 WZW 1008,6 10
18.08.2019 17:00:00 19,9 12,6 29 16 - - WZW 1007,7 10
18.08.2019 16:00:00 19,3 13,4 24 13 36 19 WZW 1007,3 10
18.08.2019 15:00:00 19,1 14,0 24 13 32 18 W 1007,1 10
18.08.2019 14:00:00 17,7 14,1 21 11 - - W 1006,5 10
18.08.2019 13:00:00 17,1 13,9 13 7 22 12 W 1005,9 10
18.08.2019 12:00:00 16,3 13,6 11 6 18 10 WNW 1005,3 10
18.08.2019 11:00:00 16,3 13,3 11 6 - - WZW 1004,8 10
18.08.2019 10:00:00 14,7 13,0 11 6 14 8 WZW 1004,6 10
18.08.2019 09:00:00 14,6 12,9 8 4 18 10 Z 1004,2 9
18.08.2019 08:00:00 14,4 12,9 11 6 - - Z 1004,3 10
18.08.2019 07:00:00 14,6 13,3 15 8 29 16 Z 1004,7 10
18.08.2019 06:00:00 14,9 13,5 16 9 25 14 Z 1005,4 10
18.08.2019 05:00:00 15,2 13,6 16 9 - - ZZW 1005,9 10
18.08.2019 04:00:00 15,3 13,6 15 8 22 12 ZZW 1006,5 10
18.08.2019 03:00:00 15,3 4,6 13 7 18 10 ZZW 1007,1 10
18.08.2019 02:00:00 15,2 13,3 13 7 - - ZZW 1007,2 10
18.08.2019 01:00:00 15,1 13,2 15 8 22 12 ZZW 1007,5 10
18.08.2019 00:00:00 15,1 13,0 13 7 22 12 ZZW 1007,4 10
17.08.2019 23:00:00 14,9 12,9 13 7 - - ZZW 1007,4 10
17.08.2019 22:00:00 15,6 13,0 15 8 25 14 ZW 1007,9 10
17.08.2019 21:00:00 16,3 12,8 16 9 29 16 ZW 1007,4 10
17.08.2019 20:00:00 16,8 13,1 18 10 - - ZW 1007,5 10
17.08.2019 19:00:00 17,5 13,2 22 12 32 18 ZW 1007,5 10
17.08.2019 18:00:00 17,9 13,2 22 12 36 19 ZW 1007,6 10
17.08.2019 17:00:00 18,5 13,8 21 11 - - WZW 1007,6 10
17.08.2019 16:00:00 18,9 15,1 18 10 32 18 WZW 1007,5 10
17.08.2019 15:00:00 18,8 14,7 22 12 36 19 WZW 1006,8 10
17.08.2019 14:00:00 18,4 16,2 18 10 - - ZW 1006,8 7
17.08.2019 13:00:00 17,8 16,1 18 10 29 16 WZW 1007,1 10
17.08.2019 12:00:00 18,4 16,7 21 11 32 18 WZW 1006,9 10
17.08.2019 11:00:00 18,1 16,5 22 12 - - ZZW 1006,8 6
17.08.2019 10:00:00 17,7 15,9 24 13 36 19 ZZW 1006,9 7
17.08.2019 09:00:00 16,9 15,4 21 11 32 18 ZZW 1006,8 10
17.08.2019 08:00:00 16,7 14,9 22 12 - - ZZW 1006,6 4,0
17.08.2019 07:00:00 16,3 14,7 22 12 36 19 ZZW 1006,4 10
17.08.2019 06:00:00 16,1 14,5 24 13 36 19 ZZW 1006,5 10
17.08.2019 05:00:00 16,1 14,3 24 13 - - ZZW 1006,5 10
17.08.2019 04:00:00 16,1 14,3 21 11 36 19 ZZW 1007,0 10
17.08.2019 03:00:00 16,6 14,1 18 10 32 18 ZZW 1007,2 10
17.08.2019 02:00:00 16,7 14,0 16 9 - - Z 1007,7 10
17.08.2019 01:00:00 16,5 14,4 15 8 25 14 Z 1008,5 10
17.08.2019 00:00:00 15,9 14,1 15 8 22 12 ZZO 1009,2 10
16.08.2019 23:00:00 15,7 14,1 9 5 - - Z 1010,2 10
16.08.2019 22:00:00 15,9 13,7 13 7 22 12 ZW 1010,9 10
16.08.2019 21:00:00 16,6 14,5 9 5 25 14 ZW 1011,1 10
16.08.2019 20:00:00 17,7 14,3 16 9 - - W 1011,4 10
16.08.2019 19:00:00 18,3 14,7 21 11 29 16 W 1011,8 10
16.08.2019 18:00:00 20,2 12,9 16 9 36 19 ZZW 1012,4 10
16.08.2019 17:00:00 20,6 12,9 24 13 - - ZZW 1013,0 10
16.08.2019 16:00:00 21,0 12,6 24 13 40 21 ZZW 1013,6 10
16.08.2019 15:00:00 19,8 12,4 24 13 36 19 ZZW 1014,6 10
16.08.2019 14:00:00 19,7 12,4 22 12 - - ZW 1015,3 10
16.08.2019 13:00:00 20,0 13,1 21 11 36 19 ZW 1015,6 10
16.08.2019 12:00:00 20,0 14,3 18 10 32 18 ZZW 1015,9 10
16.08.2019 11:00:00 18,0 13,6 18 10 - - ZZW 1016,6 10
16.08.2019 10:00:00 17,2 14,6 16 9 29 16 ZZW 1016,9 10
16.08.2019 09:00:00 15,0 12,9 16 9 22 12 ZZW 1017,2 10
16.08.2019 08:00:00 12,3 10,9 11 6 - - ZZW 1016,9 10
16.08.2019 07:00:00 10,4 8,7 5 3 7 4 ZZW 1017,2 6
16.08.2019 06:00:00 9,9 7,9 2 1 11 6 - 1017,3 6
16.08.2019 05:00:00 10,7 9,8 4 2 - - - 1017,4 10
16.08.2019 04:00:00 11,4 10,2 4 2 8 4 Z 1017,4 10
16.08.2019 03:00:00 12,4 10,7 4 2 7 4 WZW 1017,6 10
16.08.2019 02:00:00 13,0 11,5 4 2 - - ZZW 1017,3 10
16.08.2019 01:00:00 13,8 11,1 2 1 11 6 - 1017,3 10
16.08.2019 00:00:00 15,3 12,7 8 4 18 10 ZW 1017,1 10
15.08.2019 23:00:00 17,3 14,7 13 7 - - WZW 1016,9 10
15.08.2019 22:00:00 17,9 14,7 28 15 40 21 WZW 1016,4 10
15.08.2019 21:00:00 18,0 14,4 24 13 32 18 W 1015,8 10
15.08.2019 20:00:00 19,0 14,5 24 13 - - W 1015,0 10
15.08.2019 19:00:00 19,8 13,7 28 15 40 21 W 1014,6 10
15.08.2019 18:00:00 19,3 13,4 29 16 43 23 W 1014,2 10
15.08.2019 17:00:00 19,7 13,8 31 17 - - W 1013,9 10
15.08.2019 16:00:00 19,6 13,8 34 18 43 23 W 1013,2 10
15.08.2019 15:00:00 20,0 13,0 34 18 47 25 W 1012,7 10
15.08.2019 14:00:00 18,5 13,0 35 19 - - W 1012,2 10
15.08.2019 13:00:00 19,2 14,7 31 17 50 27 W 1011,5 10
15.08.2019 12:00:00 19,1 14,4 34 18 47 25 W 1011,2 10
15.08.2019 11:00:00 18,9 14,6 31 17 - - W 1010,5 10
15.08.2019 10:00:00 17,5 14,4 29 16 47 25 W 1010,2 10
15.08.2019 09:00:00 17,1 14,5 31 17 47 25 W 1009,6 10
15.08.2019 08:00:00 17,3 15,0 28 15 - - W 1008,9 10
15.08.2019 07:00:00 16,5 14,9 18 10 29 16 ZW 1008,6 10
15.08.2019 06:00:00 16,6 14,8 18 10 29 16 ZW 1008,3 10
15.08.2019 05:00:00 16,4 14,7 18 10 - - ZW 1008,5 10
15.08.2019 04:00:00 16,1 14,7 18 10 29 16 ZZW 1008,8 10
15.08.2019 03:00:00 16,0 14,2 21 11 32 18 ZZW 1009,3 10
15.08.2019 02:00:00 16,0 13,9 22 12 - - ZZW 1009,7 10
15.08.2019 01:00:00 15,9 13,8 24 13 40 21 ZZW 1010,0 10
15.08.2019 00:00:00 15,8 13,5 22 12 32 18 ZZW 1010,4 10
14.08.2019 23:00:00 16,0 14,1 21 11 - - Z 1011,0 10
14.08.2019 22:00:00 16,2 14,4 13 7 22 12 Z 1011,5 10
14.08.2019 21:00:00 16,4 14,6 13 7 22 12 Z 1011,9 10
14.08.2019 20:00:00 16,5 14,9 13 7 - - ZZO 1012,5 10
14.08.2019 19:00:00 16,4 14,1 13 7 22 12 ZO 1013,1 9
14.08.2019 18:00:00 16,5 14,2 15 8 25 14 ZZO 1013,9 10
14.08.2019 17:00:00 16,1 13,9 13 7 - - Z 1015,2 9
14.08.2019 16:00:00 18,0 13,1 18 10 32 18 Z 1015,7 10
14.08.2019 15:00:00 18,6 13,8 22 12 32 18 ZZW 1016,2 10
14.08.2019 14:00:00 18,2 11,9 24 13 - - ZZW 1016,7 10
14.08.2019 13:00:00 18,3 12,1 21 11 32 18 Z 1016,9 10
14.08.2019 12:00:00 17,6 12,4 18 10 29 16 ZZW 1017,2 10
14.08.2019 11:00:00 16,9 12,7 21 11 - - ZZW 1017,7 10
14.08.2019 10:00:00 15,4 13,0 18 10 25 14 ZZW 1018,1 10
14.08.2019 09:00:00 13,4 11,5 15 8 22 12 ZZW 1018,1 10
14.08.2019 08:00:00 11,5 10,1 9 5 - - Z 1018,0 10
14.08.2019 07:00:00 10,4 9,2 9 5 18 10 Z 1018,1 10
14.08.2019 06:00:00 10,0 9,0 9 5 14 8 Z 1017,9 10
14.08.2019 05:00:00 10,1 8,8 9 5 - - ZZW 1018,0 10
14.08.2019 04:00:00 10,0 9,0 8 4 18 10 ZZW 1018,3 10
14.08.2019 03:00:00 11,0 9,0 13 7 18 10 ZZW 1018,4 10
14.08.2019 02:00:00 11,0 9,0 11 6 - - ZZW - 10
14.08.2019 01:00:00 11,0 9,0 11 6 - - ZW - 10
14.08.2019 00:00:00 11,3 9,4 11 6 14 8 ZZW 1018,8 10
13.08.2019 23:00:00 12,7 10,2 11 6 - - ZW 1019,0 10
13.08.2019 22:00:00 12,8 9,3 11 6 25 14 ZW 1018,9 10
13.08.2019 21:00:00 16,0 9,0 18 10 32 18 WZW 1018,5 10
13.08.2019 20:00:00 17,1 11,1 22 12 - - W 1018,3 10
13.08.2019 19:00:00 18,0 10,0 18 10 29 16 W 1018,3 10
13.08.2019 18:00:00 17,9 9,7 21 11 32 18 W 1018,4 10
13.08.2019 17:00:00 18,0 9,6 26 14 - - W 1018,6 10
13.08.2019 16:00:00 18,0 10,4 28 15 43 23 W 1018,4 10

tt = temperatuur
td = dauwpunt
ff = windsnelheid
fx = windstoten
dd = windrichting
ppp = luchtdruk
vv = zicht

Weerstations in de omgeving